Year,Month,Day,Hour,Minute,Value (Times are PST for temperature in C)
2010,07,21,00,00,17.00
2010,07,21,00,01,17.00
2010,07,21,00,02,16.90
2010,07,21,00,03,16.90
2010,07,21,00,04,16.90
2010,07,21,00,05,16.80
2010,07,21,00,06,16.80
2010,07,21,00,07,16.70
2010,07,21,00,08,16.70
2010,07,21,00,09,16.70
2010,07,21,00,10,16.60
2010,07,21,00,11,16.60
2010,07,21,00,12,16.50
2010,07,21,00,13,16.50
2010,07,21,00,14,16.40
2010,07,21,00,15,16.40
2010,07,21,00,16,16.40
2010,07,21,00,17,16.30
2010,07,21,00,18,16.30
2010,07,21,00,19,16.30
2010,07,21,00,20,16.30
2010,07,21,00,21,16.20
2010,07,21,00,22,16.20
2010,07,21,00,23,16.10
2010,07,21,00,24,16.10
2010,07,21,00,25,16.10
2010,07,21,00,26,16.00
2010,07,21,00,27,16.00
2010,07,21,00,28,15.90
2010,07,21,00,29,15.90
2010,07,21,00,30,15.90
2010,07,21,00,31,15.80
2010,07,21,00,32,15.80
2010,07,21,00,33,15.80
2010,07,21,00,34,15.80
2010,07,21,00,35,15.80
2010,07,21,00,36,15.80
2010,07,21,00,37,15.80
2010,07,21,00,38,15.70
2010,07,21,00,39,15.70
2010,07,21,00,40,15.70
2010,07,21,00,41,15.70
2010,07,21,00,42,15.70
2010,07,21,00,43,15.70
2010,07,21,00,44,15.70
2010,07,21,00,45,15.60
2010,07,21,00,46,15.60
2010,07,21,00,47,15.60
2010,07,21,00,48,15.60
2010,07,21,00,49,15.60
2010,07,21,00,50,15.60
2010,07,21,00,51,15.60
2010,07,21,00,52,15.60
2010,07,21,00,53,15.60
2010,07,21,00,54,15.50
2010,07,21,00,55,15.50
2010,07,21,00,56,15.50
2010,07,21,00,57,15.50
2010,07,21,00,58,15.40
2010,07,21,00,59,15.40
2010,07,21,01,00,15.40
2010,07,21,01,01,15.40
2010,07,21,01,02,15.40
2010,07,21,01,03,15.40
2010,07,21,01,04,15.30
2010,07,21,01,05,15.30
2010,07,21,01,06,15.30
2010,07,21,01,07,15.30
2010,07,21,01,08,15.30
2010,07,21,01,09,15.20
2010,07,21,01,10,15.20
2010,07,21,01,11,15.20
2010,07,21,01,12,15.20
2010,07,21,01,13,15.20
2010,07,21,01,14,15.20
2010,07,21,01,15,15.10
2010,07,21,01,16,15.10
2010,07,21,01,17,15.10
2010,07,21,01,18,15.00
2010,07,21,01,19,15.00
2010,07,21,01,20,15.00
2010,07,21,01,21,14.90
2010,07,21,01,22,14.90
2010,07,21,01,23,14.90
2010,07,21,01,24,14.90
2010,07,21,01,25,14.90
2010,07,21,01,26,14.90
2010,07,21,01,27,14.80
2010,07,21,01,28,14.80
2010,07,21,01,29,14.80
2010,07,21,01,30,14.80
2010,07,21,01,31,14.80
2010,07,21,01,32,14.80
2010,07,21,01,33,14.80
2010,07,21,01,34,14.80
2010,07,21,01,35,14.80
2010,07,21,01,36,14.80
2010,07,21,01,37,14.70
2010,07,21,01,38,14.70
2010,07,21,01,39,14.70
2010,07,21,01,40,14.70
2010,07,21,01,41,14.70
2010,07,21,01,42,14.70
2010,07,21,01,43,14.70
2010,07,21,01,44,14.70
2010,07,21,01,45,14.60
2010,07,21,01,46,14.60
2010,07,21,01,47,14.60
2010,07,21,01,48,14.60
2010,07,21,01,49,14.60
2010,07,21,01,50,14.60
2010,07,21,01,51,14.60
2010,07,21,01,52,14.60
2010,07,21,01,53,14.60
2010,07,21,01,54,14.60
2010,07,21,01,55,14.50
2010,07,21,01,56,14.50
2010,07,21,01,57,14.50
2010,07,21,01,58,14.50
2010,07,21,01,59,14.50
2010,07,21,02,00,14.50
2010,07,21,02,01,14.50
2010,07,21,02,02,14.50
2010,07,21,02,03,14.50
2010,07,21,02,04,14.40
2010,07,21,02,05,14.40
2010,07,21,02,06,14.40
2010,07,21,02,07,14.40
2010,07,21,02,08,14.40
2010,07,21,02,09,14.40
2010,07,21,02,10,14.40
2010,07,21,02,11,14.40
2010,07,21,02,12,14.30
2010,07,21,02,13,14.30
2010,07,21,02,14,14.30
2010,07,21,02,15,14.30
2010,07,21,02,16,14.30
2010,07,21,02,17,14.30
2010,07,21,02,18,14.30
2010,07,21,02,19,14.30
2010,07,21,02,20,14.30
2010,07,21,02,21,14.20
2010,07,21,02,22,14.20
2010,07,21,02,23,14.20
2010,07,21,02,24,14.20
2010,07,21,02,25,14.20
2010,07,21,02,26,14.20
2010,07,21,02,27,14.20
2010,07,21,02,28,14.10
2010,07,21,02,29,14.10
2010,07,21,02,30,14.10
2010,07,21,02,31,14.10
2010,07,21,02,32,14.10
2010,07,21,02,33,14.00
2010,07,21,02,34,14.00
2010,07,21,02,35,13.90
2010,07,21,02,36,13.90
2010,07,21,02,37,13.90
2010,07,21,02,38,13.90
2010,07,21,02,39,13.80
2010,07,21,02,40,13.80
2010,07,21,02,41,13.80
2010,07,21,02,42,13.80
2010,07,21,02,43,13.80
2010,07,21,02,44,13.80
2010,07,21,02,45,13.80
2010,07,21,02,46,13.70
2010,07,21,02,47,13.70
2010,07,21,02,48,13.70
2010,07,21,02,49,13.70
2010,07,21,02,50,13.70
2010,07,21,02,51,13.70
2010,07,21,02,52,13.70
2010,07,21,02,53,13.70
2010,07,21,02,54,13.70
2010,07,21,02,55,13.70
2010,07,21,02,56,13.70
2010,07,21,02,57,13.70
2010,07,21,02,58,13.70
2010,07,21,02,59,13.70
2010,07,21,03,00,13.70
2010,07,21,03,01,13.70
2010,07,21,03,02,13.70
2010,07,21,03,06,13.60
2010,07,21,03,07,13.60
2010,07,21,03,08,13.60
2010,07,21,03,09,13.60
2010,07,21,03,10,13.60
2010,07,21,03,11,13.60
2010,07,21,03,12,13.60
2010,07,21,03,13,13.50
2010,07,21,03,14,13.50
2010,07,21,03,15,13.50
2010,07,21,03,16,13.50
2010,07,21,03,17,13.50
2010,07,21,03,18,13.40
2010,07,21,03,19,13.40
2010,07,21,03,20,13.40
2010,07,21,03,21,13.40
2010,07,21,03,22,13.40
2010,07,21,03,23,13.40
2010,07,21,03,24,13.40
2010,07,21,03,25,13.40
2010,07,21,03,26,13.30
2010,07,21,03,27,13.30
2010,07,21,03,28,13.30
2010,07,21,03,29,13.30
2010,07,21,03,30,13.30
2010,07,21,03,31,13.30
2010,07,21,03,32,13.30
2010,07,21,03,33,13.30
2010,07,21,03,34,13.30
2010,07,21,03,35,13.30
2010,07,21,03,36,13.30
2010,07,21,03,37,13.20
2010,07,21,03,38,13.20
2010,07,21,03,39,13.20
2010,07,21,03,40,13.20
2010,07,21,03,41,13.20
2010,07,21,03,42,13.20
2010,07,21,03,43,13.20
2010,07,21,03,44,13.20
2010,07,21,03,45,13.10
2010,07,21,03,46,13.10
2010,07,21,03,47,13.10
2010,07,21,03,48,13.10
2010,07,21,03,49,13.10
2010,07,21,03,50,13.10
2010,07,21,03,51,13.10
2010,07,21,03,52,13.10
2010,07,21,03,53,13.10
2010,07,21,03,54,13.10
2010,07,21,03,55,13.10
2010,07,21,03,56,13.10
2010,07,21,03,57,13.00
2010,07,21,03,58,13.00
2010,07,21,03,59,13.00
2010,07,21,04,00,13.00
2010,07,21,04,01,13.00
2010,07,21,04,02,13.00
2010,07,21,04,03,13.00
2010,07,21,04,04,13.00
2010,07,21,04,05,13.00
2010,07,21,04,06,13.00
2010,07,21,04,07,13.00
2010,07,21,04,08,13.00
2010,07,21,04,09,13.00
2010,07,21,04,10,13.00
2010,07,21,04,11,13.00
2010,07,21,04,12,13.00
2010,07,21,04,13,12.90
2010,07,21,04,14,12.90
2010,07,21,04,15,12.90
2010,07,21,04,16,12.90
2010,07,21,04,17,12.90
2010,07,21,04,18,12.90
2010,07,21,04,19,12.90
2010,07,21,04,20,12.80
2010,07,21,04,21,12.80
2010,07,21,04,22,12.80
2010,07,21,04,23,12.80
2010,07,21,04,24,12.80
2010,07,21,04,25,12.80
2010,07,21,04,26,12.80
2010,07,21,04,27,12.80
2010,07,21,04,28,12.80
2010,07,21,04,29,12.80
2010,07,21,04,30,12.80
2010,07,21,04,31,12.80
2010,07,21,04,32,12.80
2010,07,21,04,33,12.80
2010,07,21,04,34,12.80
2010,07,21,04,35,12.80
2010,07,21,04,36,12.70
2010,07,21,04,37,12.70
2010,07,21,04,38,12.70
2010,07,21,04,39,12.70
2010,07,21,04,40,12.70
2010,07,21,04,41,12.70
2010,07,21,04,42,12.70
2010,07,21,04,43,12.60
2010,07,21,04,44,12.60
2010,07,21,04,45,12.60
2010,07,21,04,46,12.60
2010,07,21,04,47,12.60
2010,07,21,04,48,12.50
2010,07,21,04,49,12.50
2010,07,21,04,50,12.50
2010,07,21,04,51,12.50
2010,07,21,04,52,12.50
2010,07,21,04,53,12.40
2010,07,21,04,54,12.40
2010,07,21,04,55,12.40
2010,07,21,04,56,12.40
2010,07,21,04,57,12.40
2010,07,21,04,58,12.40
2010,07,21,04,59,12.40
2010,07,21,05,00,12.40
2010,07,21,05,01,12.40
2010,07,21,05,02,12.40
2010,07,21,05,03,12.30
2010,07,21,05,04,12.30
2010,07,21,05,05,12.30
2010,07,21,05,06,12.40
2010,07,21,05,07,12.40
2010,07,21,05,08,12.40
2010,07,21,05,09,12.40
2010,07,21,05,10,12.40
2010,07,21,05,11,12.40
2010,07,21,05,12,12.40
2010,07,21,05,13,12.40
2010,07,21,05,14,12.40
2010,07,21,05,15,12.30
2010,07,21,05,16,12.30
2010,07,21,05,17,12.30
2010,07,21,05,18,12.30
2010,07,21,05,19,12.30
2010,07,21,05,20,12.30
2010,07,21,05,21,12.30
2010,07,21,05,22,12.30
2010,07,21,05,23,12.30
2010,07,21,05,24,12.30
2010,07,21,05,25,12.30
2010,07,21,05,26,12.30
2010,07,21,05,27,12.30
2010,07,21,05,28,12.30
2010,07,21,05,29,12.30
2010,07,21,05,30,12.20
2010,07,21,05,31,12.20
2010,07,21,05,32,12.20
2010,07,21,05,33,12.20
2010,07,21,05,34,12.20
2010,07,21,05,35,12.20
2010,07,21,05,36,12.20
2010,07,21,05,37,12.20
2010,07,21,05,38,12.20
2010,07,21,05,39,12.20
2010,07,21,05,40,12.20
2010,07,21,05,41,12.20
2010,07,21,05,42,12.20
2010,07,21,05,43,12.20
2010,07,21,05,44,12.20
2010,07,21,05,45,12.10
2010,07,21,05,46,12.10
2010,07,21,05,47,12.10
2010,07,21,05,48,12.10
2010,07,21,05,49,12.10
2010,07,21,05,50,12.10
2010,07,21,05,51,12.10
2010,07,21,05,52,12.10
2010,07,21,05,53,12.10
2010,07,21,05,54,12.10
2010,07,21,05,55,12.00
2010,07,21,05,56,12.00
2010,07,21,05,57,12.10
2010,07,21,05,58,12.00
2010,07,21,05,59,12.00
2010,07,21,06,00,12.00
2010,07,21,06,01,12.00
2010,07,21,06,02,12.00
2010,07,21,06,03,12.00
2010,07,21,06,04,12.00
2010,07,21,06,05,12.00
2010,07,21,06,06,12.00
2010,07,21,06,07,12.00
2010,07,21,06,08,12.00
2010,07,21,06,09,12.00
2010,07,21,06,10,12.00
2010,07,21,06,11,12.00
2010,07,21,06,12,12.00
2010,07,21,06,13,12.10
2010,07,21,06,14,12.10
2010,07,21,06,15,12.10
2010,07,21,06,16,12.10
2010,07,21,06,17,12.10
2010,07,21,06,18,12.10
2010,07,21,06,19,12.10
2010,07,21,06,20,12.10
2010,07,21,06,21,12.10
2010,07,21,06,22,12.20
2010,07,21,06,23,12.20
2010,07,21,06,24,12.20
2010,07,21,06,25,12.20
2010,07,21,06,26,12.20
2010,07,21,06,27,12.20
2010,07,21,06,28,12.20
2010,07,21,06,29,12.30
2010,07,21,06,30,12.30
2010,07,21,06,31,12.30
2010,07,21,06,32,12.30
2010,07,21,06,33,12.30
2010,07,21,06,34,12.40
2010,07,21,06,35,12.40
2010,07,21,06,36,12.40
2010,07,21,06,37,12.40
2010,07,21,06,38,12.50
2010,07,21,06,39,12.50
2010,07,21,06,40,12.50
2010,07,21,06,41,12.50
2010,07,21,06,42,12.60
2010,07,21,06,43,12.60
2010,07,21,06,44,12.60
2010,07,21,06,45,12.60
2010,07,21,06,46,12.60
2010,07,21,06,47,12.70
2010,07,21,06,48,12.70
2010,07,21,06,49,12.70
2010,07,21,06,50,12.70
2010,07,21,06,51,12.70
2010,07,21,06,52,12.70
2010,07,21,06,53,12.70
2010,07,21,06,54,12.80
2010,07,21,06,55,12.80
2010,07,21,06,56,12.80
2010,07,21,06,57,12.80
2010,07,21,06,58,12.80
2010,07,21,06,59,12.80
2010,07,21,07,00,12.80
2010,07,21,07,01,12.90
2010,07,21,07,02,12.90
2010,07,21,07,03,12.90
2010,07,21,07,04,12.90
2010,07,21,07,05,12.90
2010,07,21,07,06,13.00
2010,07,21,07,07,13.00
2010,07,21,07,08,13.00
2010,07,21,07,09,13.10
2010,07,21,07,10,13.10
2010,07,21,07,11,13.10
2010,07,21,07,12,13.10
2010,07,21,07,13,13.20
2010,07,21,07,14,13.20
2010,07,21,07,15,13.20
2010,07,21,07,16,13.20
2010,07,21,07,17,13.30
2010,07,21,07,18,13.30
2010,07,21,07,19,13.30
2010,07,21,07,20,13.30
2010,07,21,07,21,13.30
2010,07,21,07,22,13.40
2010,07,21,07,23,13.40
2010,07,21,07,24,13.40
2010,07,21,07,25,13.50
2010,07,21,07,26,13.50
2010,07,21,07,27,13.60
2010,07,21,07,28,13.60
2010,07,21,07,29,13.70
2010,07,21,07,30,13.70
2010,07,21,07,31,13.80
2010,07,21,07,32,13.90
2010,07,21,07,33,13.90
2010,07,21,07,34,14.00
2010,07,21,07,35,14.10
2010,07,21,07,36,14.20
2010,07,21,07,37,14.30
2010,07,21,07,38,14.30
2010,07,21,07,39,14.40
2010,07,21,07,40,14.40
2010,07,21,07,41,14.50
2010,07,21,07,42,14.60
2010,07,21,07,43,14.70
2010,07,21,07,44,14.80
2010,07,21,07,45,14.80
2010,07,21,07,46,14.90
2010,07,21,07,47,15.00
2010,07,21,07,48,15.10
2010,07,21,07,49,15.20
2010,07,21,07,50,15.20
2010,07,21,07,51,15.30
2010,07,21,07,52,15.30
2010,07,21,07,53,15.40
2010,07,21,07,54,15.50
2010,07,21,07,55,15.50
2010,07,21,07,56,15.60
2010,07,21,07,57,15.70
2010,07,21,07,58,15.80
2010,07,21,07,59,15.90
2010,07,21,08,00,16.00
2010,07,21,08,01,16.10
2010,07,21,08,02,16.20
2010,07,21,08,03,16.20
2010,07,21,08,04,16.20
2010,07,21,08,05,16.30
2010,07,21,08,06,16.30
2010,07,21,08,07,16.30
2010,07,21,08,08,16.40
2010,07,21,08,09,16.40
2010,07,21,08,10,16.50
2010,07,21,08,11,16.60
2010,07,21,08,12,16.70
2010,07,21,08,13,16.80
2010,07,21,08,14,16.90
2010,07,21,08,15,16.90
2010,07,21,08,16,17.00
2010,07,21,08,17,17.10
2010,07,21,08,18,17.10
2010,07,21,08,19,17.10
2010,07,21,08,20,17.20
2010,07,21,08,21,17.10
2010,07,21,08,22,17.10
2010,07,21,08,23,17.10
2010,07,21,08,24,17.20
2010,07,21,08,25,17.20
2010,07,21,08,26,17.20
2010,07,21,08,27,17.20
2010,07,21,08,28,17.20
2010,07,21,08,29,17.30
2010,07,21,08,30,17.30
2010,07,21,08,31,17.30
2010,07,21,08,32,17.30
2010,07,21,08,33,17.40
2010,07,21,08,34,17.40
2010,07,21,08,35,17.40
2010,07,21,08,36,17.50
2010,07,21,08,37,17.60
2010,07,21,08,38,17.60
2010,07,21,08,39,17.70
2010,07,21,08,40,17.80
2010,07,21,08,41,17.80
2010,07,21,08,42,17.90
2010,07,21,08,43,17.90
2010,07,21,08,44,17.90
2010,07,21,08,45,17.90
2010,07,21,08,46,17.90
2010,07,21,08,47,17.90
2010,07,21,08,48,18.00
2010,07,21,08,49,18.00
2010,07,21,08,50,18.00
2010,07,21,08,51,18.00
2010,07,21,08,52,18.10
2010,07,21,08,53,18.10
2010,07,21,08,54,18.10
2010,07,21,08,55,18.20
2010,07,21,08,56,18.20
2010,07,21,08,57,18.30
2010,07,21,08,58,18.40
2010,07,21,08,59,18.40
2010,07,21,09,00,18.50
2010,07,21,09,01,18.60
2010,07,21,09,02,18.80
2010,07,21,09,03,18.80
2010,07,21,09,04,18.80
2010,07,21,09,05,18.80
2010,07,21,09,06,18.70
2010,07,21,09,07,18.80
2010,07,21,09,08,18.80
2010,07,21,09,09,18.80
2010,07,21,09,10,18.90
2010,07,21,09,11,18.90
2010,07,21,09,12,18.90
2010,07,21,09,13,18.90
2010,07,21,09,14,18.90
2010,07,21,09,15,18.90
2010,07,21,09,16,18.80
2010,07,21,09,17,18.80
2010,07,21,09,18,18.80
2010,07,21,09,19,18.80
2010,07,21,09,20,18.80
2010,07,21,09,21,18.90
2010,07,21,09,22,18.90
2010,07,21,09,23,18.90
2010,07,21,09,24,19.00
2010,07,21,09,25,19.00
2010,07,21,09,26,19.10
2010,07,21,09,27,19.10
2010,07,21,09,28,19.10
2010,07,21,09,29,19.20
2010,07,21,09,30,19.30
2010,07,21,09,31,19.40
2010,07,21,09,32,19.40
2010,07,21,09,33,19.50
2010,07,21,09,34,19.50
2010,07,21,09,35,19.60
2010,07,21,09,36,19.70
2010,07,21,09,37,19.80
2010,07,21,09,38,19.90
2010,07,21,09,39,19.90
2010,07,21,09,40,20.00
2010,07,21,09,41,20.00
2010,07,21,09,42,20.00
2010,07,21,09,43,20.10
2010,07,21,09,44,20.10
2010,07,21,09,45,20.20
2010,07,21,09,46,20.30
2010,07,21,09,47,20.40
2010,07,21,09,48,20.40
2010,07,21,09,49,20.50
2010,07,21,09,50,20.50
2010,07,21,09,51,20.60
2010,07,21,09,52,20.70
2010,07,21,09,53,20.70
2010,07,21,09,54,20.80
2010,07,21,09,55,20.80
2010,07,21,09,56,20.80
2010,07,21,09,57,20.90
2010,07,21,09,58,20.90
2010,07,21,09,59,21.00
2010,07,21,10,00,21.10
2010,07,21,10,01,21.20
2010,07,21,10,02,21.20
2010,07,21,10,03,21.30
2010,07,21,10,04,21.30
2010,07,21,10,05,21.30
2010,07,21,10,06,21.30
2010,07,21,10,07,21.20
2010,07,21,10,08,21.30
2010,07,21,10,09,21.30
2010,07,21,10,10,21.40
2010,07,21,10,11,21.40
2010,07,21,10,12,21.50
2010,07,21,10,13,21.50
2010,07,21,10,14,21.60
2010,07,21,10,15,21.60
2010,07,21,10,16,21.70
2010,07,21,10,17,21.80
2010,07,21,10,18,21.90
2010,07,21,10,19,21.90
2010,07,21,10,20,21.90
2010,07,21,10,21,21.90
2010,07,21,10,22,21.90
2010,07,21,10,23,21.90
2010,07,21,10,24,21.90
2010,07,21,10,25,21.90
2010,07,21,10,26,21.90
2010,07,21,10,27,21.90
2010,07,21,10,28,21.90
2010,07,21,10,29,21.80
2010,07,21,10,30,21.70
2010,07,21,10,31,21.60
2010,07,21,10,32,21.60
2010,07,21,10,33,21.60
2010,07,21,10,34,21.70
2010,07,21,10,35,21.70
2010,07,21,10,36,21.70
2010,07,21,10,37,21.70
2010,07,21,10,38,21.70
2010,07,21,10,39,21.70
2010,07,21,10,40,21.70
2010,07,21,10,41,21.70
2010,07,21,10,42,21.70
2010,07,21,10,43,21.70
2010,07,21,10,44,21.60
2010,07,21,10,45,21.60
2010,07,21,10,46,21.60
2010,07,21,10,47,21.60
2010,07,21,10,48,21.70
2010,07,21,10,49,21.70
2010,07,21,10,50,21.80
2010,07,21,10,51,21.90
2010,07,21,10,52,22.00
2010,07,21,10,53,22.10
2010,07,21,10,54,22.10
2010,07,21,10,55,22.10
2010,07,21,10,56,22.10
2010,07,21,10,57,22.00
2010,07,21,10,58,21.90
2010,07,21,10,59,22.00
2010,07,21,11,00,22.00
2010,07,21,11,01,22.10
2010,07,21,11,02,22.20
2010,07,21,11,03,22.20
2010,07,21,11,04,22.20
2010,07,21,11,05,22.20
2010,07,21,11,06,22.30
2010,07,21,11,07,22.30
2010,07,21,11,08,22.30
2010,07,21,11,09,22.20
2010,07,21,11,10,22.20
2010,07,21,11,11,22.20
2010,07,21,11,12,22.20
2010,07,21,11,13,22.20
2010,07,21,11,14,22.20
2010,07,21,11,15,22.20
2010,07,21,11,16,22.20
2010,07,21,11,17,22.20
2010,07,21,11,18,22.20
2010,07,21,11,19,22.30
2010,07,21,11,20,22.30
2010,07,21,11,21,22.30
2010,07,21,11,22,22.30
2010,07,21,11,23,22.30
2010,07,21,11,24,22.30
2010,07,21,11,25,22.30
2010,07,21,11,26,22.30
2010,07,21,11,27,22.30
2010,07,21,11,28,22.40
2010,07,21,11,29,22.50
2010,07,21,11,30,22.50
2010,07,21,11,31,22.60
2010,07,21,11,32,22.70
2010,07,21,11,33,22.80
2010,07,21,11,34,22.90
2010,07,21,11,35,23.00
2010,07,21,11,36,23.10
2010,07,21,11,37,23.10
2010,07,21,11,38,23.10
2010,07,21,11,39,23.20
2010,07,21,11,40,23.20
2010,07,21,11,41,23.20
2010,07,21,11,42,23.20
2010,07,21,11,43,23.20
2010,07,21,11,44,23.20
2010,07,21,11,45,23.20
2010,07,21,11,46,23.20
2010,07,21,11,47,23.20
2010,07,21,11,48,23.10
2010,07,21,11,49,23.10
2010,07,21,11,50,23.20
2010,07,21,11,51,23.20
2010,07,21,11,52,23.20
2010,07,21,11,53,23.30
2010,07,21,11,54,23.30
2010,07,21,11,55,23.30
2010,07,21,11,56,23.40
2010,07,21,11,57,23.50
2010,07,21,11,58,23.60
2010,07,21,11,59,23.60
2010,07,21,12,00,23.70
2010,07,21,12,01,23.70
2010,07,21,12,02,23.70
2010,07,21,12,03,23.70
2010,07,21,12,04,23.70
2010,07,21,12,05,23.70
2010,07,21,12,06,23.70
2010,07,21,12,07,23.80
2010,07,21,12,08,23.80
2010,07,21,12,09,23.90
2010,07,21,12,10,23.90
2010,07,21,12,11,23.90
2010,07,21,12,12,23.90
2010,07,21,12,13,23.90
2010,07,21,12,14,24.00
2010,07,21,12,15,24.10
2010,07,21,12,16,24.10
2010,07,21,12,17,24.00
2010,07,21,12,18,24.00
2010,07,21,12,19,24.00
2010,07,21,12,20,24.00
2010,07,21,12,21,24.10
2010,07,21,12,22,24.20
2010,07,21,12,23,24.40
2010,07,21,12,24,24.50
2010,07,21,12,25,24.60
2010,07,21,12,26,24.60
2010,07,21,12,27,24.60
2010,07,21,12,28,24.60
2010,07,21,12,29,24.60
2010,07,21,12,30,24.60
2010,07,21,12,31,24.60
2010,07,21,12,32,24.60
2010,07,21,12,33,24.60
2010,07,21,12,34,24.60
2010,07,21,12,35,24.60
2010,07,21,12,36,24.70
2010,07,21,12,37,24.80
2010,07,21,12,38,24.90
2010,07,21,12,39,24.90
2010,07,21,12,40,25.00
2010,07,21,12,41,25.10
2010,07,21,12,42,25.10
2010,07,21,12,43,25.20
2010,07,21,12,44,25.20
2010,07,21,12,45,25.30
2010,07,21,12,46,25.40
2010,07,21,12,47,25.40
2010,07,21,12,48,25.40
2010,07,21,12,49,25.40
2010,07,21,12,50,25.50
2010,07,21,12,51,25.50
2010,07,21,12,52,25.60
2010,07,21,12,53,25.70
2010,07,21,12,54,25.90
2010,07,21,12,55,25.90
2010,07,21,12,56,26.00
2010,07,21,12,57,26.10
2010,07,21,12,58,26.20
2010,07,21,12,59,26.20
2010,07,21,13,00,26.10
2010,07,21,13,01,26.10
2010,07,21,13,02,26.10
2010,07,21,13,03,26.10
2010,07,21,13,04,26.20
2010,07,21,13,05,26.30
2010,07,21,13,06,26.40
2010,07,21,13,07,26.50
2010,07,21,13,08,26.60
2010,07,21,13,09,26.60
2010,07,21,13,10,26.60
2010,07,21,13,11,26.60
2010,07,21,13,12,26.50
2010,07,21,13,13,26.60
2010,07,21,13,14,26.60
2010,07,21,13,15,26.70
2010,07,21,13,16,26.80
2010,07,21,13,17,26.80
2010,07,21,13,18,26.90
2010,07,21,13,19,27.00
2010,07,21,13,20,27.00
2010,07,21,13,21,27.10
2010,07,21,13,22,27.10
2010,07,21,13,23,27.10
2010,07,21,13,24,27.10
2010,07,21,13,25,27.20
2010,07,21,13,26,27.10
2010,07,21,13,27,27.10
2010,07,21,13,28,27.10
2010,07,21,13,29,27.10
2010,07,21,13,30,27.20
2010,07,21,13,31,27.20
2010,07,21,13,32,27.30
2010,07,21,13,33,27.30
2010,07,21,13,34,27.30
2010,07,21,13,35,27.30
2010,07,21,13,36,27.40
2010,07,21,13,37,27.40
2010,07,21,13,38,27.50
2010,07,21,13,39,27.50
2010,07,21,13,40,27.70
2010,07,21,13,41,27.80
2010,07,21,13,42,27.80
2010,07,21,13,43,27.80
2010,07,21,13,44,27.90
2010,07,21,13,45,27.90
2010,07,21,13,46,27.90
2010,07,21,13,47,28.00
2010,07,21,13,48,28.00
2010,07,21,13,49,28.10
2010,07,21,13,50,28.20
2010,07,21,13,51,28.20
2010,07,21,13,52,28.20
2010,07,21,13,53,28.20
2010,07,21,13,54,28.20
2010,07,21,13,55,28.30
2010,07,21,13,56,28.40
2010,07,21,13,57,28.60
2010,07,21,13,58,28.80
2010,07,21,13,59,28.90
2010,07,21,14,00,28.90
2010,07,21,14,01,29.00
2010,07,21,14,02,29.00
2010,07,21,14,03,28.90
2010,07,21,14,04,28.90
2010,07,21,14,05,28.80
2010,07,21,14,06,28.80
2010,07,21,14,07,28.80
2010,07,21,14,08,28.80
2010,07,21,14,09,29.00
2010,07,21,14,10,29.10
2010,07,21,14,11,29.20
2010,07,21,14,12,29.40
2010,07,21,14,13,29.40
2010,07,21,14,14,29.30
2010,07,21,14,15,29.20
2010,07,21,14,16,29.30
2010,07,21,14,17,29.20
2010,07,21,14,18,29.10
2010,07,21,14,19,29.10
2010,07,21,14,20,29.00
2010,07,21,14,21,28.90
2010,07,21,14,22,28.70
2010,07,21,14,23,28.60
2010,07,21,14,24,28.60
2010,07,21,14,25,28.60
2010,07,21,14,26,28.60
2010,07,21,14,27,28.70
2010,07,21,14,28,28.80
2010,07,21,14,29,29.00
2010,07,21,14,30,29.10
2010,07,21,14,31,29.20
2010,07,21,14,32,29.30
2010,07,21,14,33,29.30
2010,07,21,14,34,29.40
2010,07,21,14,35,29.40
2010,07,21,14,36,29.50
2010,07,21,14,37,29.60
2010,07,21,14,38,29.60
2010,07,21,14,39,29.70
2010,07,21,14,40,29.80
2010,07,21,14,41,29.80
2010,07,21,14,42,29.70
2010,07,21,14,43,29.70
2010,07,21,14,44,29.60
2010,07,21,14,45,29.60
2010,07,21,14,46,29.70
2010,07,21,14,47,29.70
2010,07,21,14,48,29.70
2010,07,21,14,49,29.70
2010,07,21,14,50,29.80
2010,07,21,14,51,29.80
2010,07,21,14,52,29.90
2010,07,21,14,53,29.80
2010,07,21,14,54,29.80
2010,07,21,14,55,29.80
2010,07,21,14,56,29.80
2010,07,21,14,57,29.80
2010,07,21,14,58,29.80
2010,07,21,14,59,29.90
2010,07,21,15,00,29.90
2010,07,21,15,01,29.80
2010,07,21,15,02,29.80
2010,07,21,15,03,29.80
2010,07,21,15,04,29.80
2010,07,21,15,05,29.80
2010,07,21,15,06,29.80
2010,07,21,15,07,29.70
2010,07,21,15,08,29.70
2010,07,21,15,09,29.80
2010,07,21,15,10,29.70
2010,07,21,15,11,29.60
2010,07,21,15,12,29.60
2010,07,21,15,13,29.50
2010,07,21,15,14,29.60
2010,07,21,15,15,29.60
2010,07,21,15,16,29.70
2010,07,21,15,17,29.70
2010,07,21,15,18,29.70
2010,07,21,15,19,29.70
2010,07,21,15,20,29.60
2010,07,21,15,21,29.60
2010,07,21,15,22,29.60
2010,07,21,15,23,29.60
2010,07,21,15,24,29.40
2010,07,21,15,25,29.30
2010,07,21,15,26,29.20
2010,07,21,15,27,29.20
2010,07,21,15,28,29.10
2010,07,21,15,29,29.10
2010,07,21,15,30,29.10
2010,07,21,15,31,29.10
2010,07,21,15,32,29.00
2010,07,21,15,33,29.00
2010,07,21,15,34,29.10
2010,07,21,15,35,29.10
2010,07,21,15,36,29.10
2010,07,21,15,37,29.10
2010,07,21,15,38,29.10
2010,07,21,15,39,29.10
2010,07,21,15,40,29.10
2010,07,21,15,41,29.00
2010,07,21,15,42,28.80
2010,07,21,15,43,28.80
2010,07,21,15,44,28.80
2010,07,21,15,45,28.90
2010,07,21,15,46,29.00
2010,07,21,15,47,29.00
2010,07,21,15,48,28.90
2010,07,21,15,49,28.90
2010,07,21,15,50,28.90
2010,07,21,15,51,28.90
2010,07,21,15,52,28.80
2010,07,21,15,53,28.80
2010,07,21,15,54,28.70
2010,07,21,15,55,28.50
2010,07,21,15,56,28.40
2010,07,21,15,57,28.40
2010,07,21,15,58,28.50
2010,07,21,15,59,28.50
2010,07,21,16,00,28.60
2010,07,21,16,01,28.70
2010,07,21,16,02,28.70
2010,07,21,16,03,28.80
2010,07,21,16,04,28.80
2010,07,21,16,05,28.80
2010,07,21,16,06,28.60
2010,07,21,16,07,28.30
2010,07,21,16,08,28.10
2010,07,21,16,09,28.10
2010,07,21,16,10,28.00
2010,07,21,16,11,27.90
2010,07,21,16,12,27.80
2010,07,21,16,13,28.00
2010,07,21,16,14,28.00
2010,07,21,16,15,28.10
2010,07,21,16,16,28.20
2010,07,21,16,17,28.30
2010,07,21,16,18,28.30
2010,07,21,16,19,28.20
2010,07,21,16,20,28.20
2010,07,21,16,21,28.20
2010,07,21,16,22,28.10
2010,07,21,16,23,28.10
2010,07,21,16,24,28.10
2010,07,21,16,25,28.10
2010,07,21,16,26,28.20
2010,07,21,16,27,28.20
2010,07,21,16,28,28.30
2010,07,21,16,29,28.40
2010,07,21,16,30,28.50
2010,07,21,16,31,28.50
2010,07,21,16,32,28.50
2010,07,21,16,33,28.50
2010,07,21,16,34,28.40
2010,07,21,16,35,28.40
2010,07,21,16,36,28.50
2010,07,21,16,37,28.40
2010,07,21,16,38,28.40
2010,07,21,16,39,28.40
2010,07,21,16,40,28.50
2010,07,21,16,41,28.50
2010,07,21,16,42,28.60
2010,07,21,16,43,28.70
2010,07,21,16,44,28.70
2010,07,21,16,45,28.70
2010,07,21,16,46,28.60
2010,07,21,16,47,28.40
2010,07,21,16,48,28.30
2010,07,21,16,49,28.20
2010,07,21,16,50,28.20
2010,07,21,16,51,28.20
2010,07,21,16,52,28.20
2010,07,21,16,53,28.20
2010,07,21,16,54,28.30
2010,07,21,16,55,28.20
2010,07,21,16,56,28.20
2010,07,21,16,57,28.20
2010,07,21,16,58,28.10
2010,07,21,16,59,28.00
2010,07,21,17,00,28.00
2010,07,21,17,01,27.90
2010,07,21,17,02,27.90
2010,07,21,17,03,27.90
2010,07,21,17,04,27.90
2010,07,21,17,05,27.90
2010,07,21,17,06,27.90
2010,07,21,17,07,27.90
2010,07,21,17,08,27.90
2010,07,21,17,09,27.80
2010,07,21,17,10,27.80
2010,07,21,17,11,27.80
2010,07,21,17,12,27.80
2010,07,21,17,13,27.90
2010,07,21,17,14,27.80
2010,07,21,17,15,27.70
2010,07,21,17,16,27.60
2010,07,21,17,17,27.60
2010,07,21,17,18,27.60
2010,07,21,17,19,27.70
2010,07,21,17,20,27.70
2010,07,21,17,21,27.70
2010,07,21,17,22,27.60